Location: Rottenacker
(48.2350°N, 9.6886°E)
Time: 11:08:49
(UTC+02:00)

ISS - Visible Passes

Search period start: 13 May 2021 00:00
Search period end: 23 May 2021 00:00
Orbit: 417 x 422 km, 51.6° (Epoch: 13 May)

Date Brightness Start Highest point End Pass type
(mag) Time Alt. Az. Time Alt. Az. Time Alt. Az.
13 May -0.8 00:32:07 10° ENE 00:32:07 10° ENE 00:32:08 10° ENE visible
13 May -2.7 02:05:02 38° NW 02:05:45 45° N 02:09:01 10° ENE visible
13 May -3.3 03:39:30 10° WNW 03:42:52 64° NNE 03:46:14 10° E visible
14 May -2.7 01:18:38 46° NNE 01:18:38 46° NNE 01:21:32 10° ENE visible
14 May -3.0 02:52:02 10° WNW 02:55:22 53° N 02:58:41 10° E visible
14 May -3.6 04:28:55 10° WNW 04:32:13 50° SSW 04:35:30 10° SE visible
14 May -3.4 22:50:45 10° SW 22:53:56 41° SSE 22:55:35 23° E visible
15 May -3.2 00:27:23 10° W 00:30:43 57° NNW 00:34:03 10° ENE visible
15 May -2.7 02:04:35 10° WNW 02:07:51 47° N 02:11:09 10° E visible
15 May -3.9 03:41:26 10° WNW 03:44:49 73° SSW 03:48:11 10° ESE visible
15 May -2.8 22:03:42 10° SSW 22:06:37 27° SE 22:09:32 10° E visible
15 May -3.6 23:39:52 10° WSW 23:43:14 72° NNW 23:46:37 10° ENE visible
16 May -2.6 01:17:04 10° WNW 01:20:19 44° N 01:23:36 10° ENE visible
16 May -3.8 02:54:00 10° WNW 02:57:23 83° NNE 03:00:46 10° ESE visible
16 May -2.5 04:31:12 10° W 04:33:55 22° SW 04:36:37 10° SSE visible
16 May -3.9 22:52:24 10° WSW 22:55:46 86° SSE 22:59:09 10° ENE visible
17 May -2.7 00:29:32 10° WNW 00:32:47 45° N 00:36:04 10° ENE visible
17 May -3.4 02:06:33 10° WNW 02:09:55 64° NNE 02:13:17 10° E visible
17 May -3.1 03:43:31 10° W 03:46:36 33° SW 03:49:40 10° SSE visible
17 May -3.8 22:05:01 10° SW 22:08:21 61° SSE 22:11:42 10° ENE visible
17 May -2.8 23:41:59 10° W 23:45:16 49° N 23:48:34 10° ENE visible
18 May -3.0 01:19:05 10° WNW 01:22:25 53° NNE 01:22:56 47° NE visible
18 May -3.1 22:54:25 10° W 22:57:45 57° NNW 23:01:06 10° ENE visible
19 May -2.8 00:31:36 10° WNW 00:34:54 47° N 00:36:31 25° ENE visible
19 May -1.6 02:08:28 10° WNW 02:09:26 18° WNW 02:09:26 18° WNW visible
19 May -3.5 22:06:53 10° WSW 22:10:15 72° NNW 22:13:37 10° ENE visible
19 May -2.6 23:44:05 10° WNW 23:47:21 44° N 23:50:20 12° ENE visible
20 May -2.7 01:21:01 10° WNW 01:23:17 39° WNW 01:23:17 39° WNW visible
20 May -2.6 22:56:32 10° WNW 22:59:49 45° N 23:03:05 10° ENE visible
21 May -3.4 00:33:34 10° WNW 00:36:56 64° NNE 00:37:12 61° NE visible
21 May -2.8 22:08:59 10° W 22:12:16 49° N 22:15:34 10° ENE visible
21 May -3.0 23:46:06 10° WNW 23:49:25 53° NNE 23:51:10 24° E visible
22 May -1.6 01:22:58 10° WNW 01:24:06 19° W 01:24:06 19° W visible
22 May -2.8 22:58:37 10° WNW 23:01:54 47° N 23:05:10 10° E visible
